This demonstration page uses our WeatherBlox Daily Observations layout. Learn more.

Left ArrowRight Arrow

Hourly Observations for July 29, 2021

Temp ( °F °C ) Dew Point ( °F °C ) Humidity (%) Winds ( mph kmh ) Pressure ( in mb ) Visibility ( mi km ) Precip ( " mm )
12:53 am 00:53 Clear 71 21.7 64 17.8 79 79 E 3 6 30.00 1016 10 16 0.00 0.00
1:53 am 01:53 Clear 69 20.6 64 17.8 84 84 N 7 11 30.01 1016 10 16 0.00 0.00
2:53 am 02:53 Clear 67 19.4 64 17.8 91 91 N 6 9 30.00 1016 10 16 0.00 0.00
3:53 am 03:53 Clear 67 19.4 63 17.2 87 87 NE 3 6 29.99 1016 10 16 0.00 0.00
4:53 am 04:53 Clear 66 18.9 63 17.2 90 90 ENE 5 7 29.98 1015 10 16 0.00 0.00
5:53 am 05:53 Clear 66 18.9 62 16.7 87 87 NE 5 7 29.98 1015 10 16 0.00 0.00
6:53 am 06:53 Clear 65 18.3 62 16.7 90 90 NNE 6 9 29.99 1016 10 16 0.00 0.00
7:53 am 07:53 Sunny 68 20 63 17.2 84 84 Calm 30.01 1016 10 16 0.00 0.00
8:53 am 08:53 Sunny 74 23.3 63 17.2 69 69 ESE 9 15 30.02 1017 10 16 0.00 0.00
9:53 am 09:53 Sunny 77 25 64 17.8 64 64 SE 12 19 30.04 1017 10 16 0.00 0.00
10:53 am 10:53 Sunny 81 27.2 64 17.8 57 57 SE 10 17 30.04 1017 10 16 0.00 0.00
11:53 am 11:53 Sunny 85 29.4 64 17.8 50 50 SSE 8 13 30.04 1017 10 16 0.00 0.00
12:53 pm 12:53 Sunny 89 31.7 62 16.7 41 41 SE 13 20 30.01 1016 10 16 0.00 0.00
1:53 pm 13:53 Sunny 91 32.8 60 15.6 35 35 ESE 10 17 29.99 1016 10 16 0.00 0.00
2:53 pm 14:53 Mostly Sunny 92 33.3 59 15 33 33 SE 15 24 29.96 1015 10 16 0.00 0.00
3:53 pm 15:53 Partly Cloudy 92 33.3 59 15 33 33 SE 12 19 29.94 1014 10 16 0.00 0.00
4:53 pm 16:53 Partly Cloudy 91 32.8 58 14.4 33 33 SE 9 15 29.93 1014 10 16 0.00 0.00
5:53 pm 17:53 Mostly Sunny 94 34.4 57 13.9 29 29 SE 17 28 29.92 1013 10 16 0.00 0.00
6:53 pm 18:53 Mostly Sunny 93 33.9 59 15 32 32 SE 18 30 29.91 1013 10 16 0.00 0.00
7:53 pm 19:53 Mostly Sunny 91 32.8 57 13.9 32 32 ESE 15 24 29.91 1013 10 16 0.00 0.00
8:53 pm 20:53 Clear 89 31.7 57 13.9 34 34 SE 8 13 29.92 1013 10 16 0.00 0.00
9:53 pm 21:53 Clear 86 30 58 14.4 39 39 ESE 9 15 29.93 1014 10 16 0.00 0.00
10:53 pm 22:53 Partly Cloudy 84 28.9 59 15 43 43 ESE 7 11 29.95 1014 10 16 0.00 0.00
11:53 pm 23:53 Mostly Cloudy 84 28.9 60 15.6 44 44 ESE 12 19 29.96 1015 10 16 0.00 0.00

Powered by AerisWeather